User: anonymous   Login
Location: Solon
(41.3849°N, 81.4081°W)
Time: 05:45:57
(UTC-04:00)
Language:

CZ-2C R/B - Orbit

View from above orbital plane
View from above orbital plane
View from above satellite
View from above satellite

Ground track
Ground track

The orbit data is extracted from the following two-line orbital elements,

1 28480U 04046B   16212.43960213 -.00000009  00000-0  11555-4 0  9997
2 28480  98.1863 323.4946 0143355  94.1299 308.5516 14.25602119608390
Epoch (UTC): 30 July 2016 10:33:01
Eccentricity: 0.0143355
inclination: 98.1863°
perigee height: 703 km
apogee height: 909 km
right ascension of ascending node: 323.4946°
argument of perigee: 94.1299°
revolutions per day: 14.25602119
mean anomaly at epoch: 308.5516°
orbit number at epoch: 60839

The dashed part of the orbit path shows where the satellite is in the earth's shadow,  

DLR